Temp
10 10 9 9 9 9 8 8 8 8 8 8 8 8 8 8 9 9 9 9 9 9 9 9 9 9 10 10 10 10 11 11 11 11 12 12 12 12 12 13 13 13
10 10 9 10 10 9 9 8 8 8 8 8 8 8 8 8 9 9 9 9 9 9 9 9 9 9 9 10 10 10 10 11 11 11 12 12 12 12 12 12 12 12
10 10 9 10 10 9 8 8 8 8 8 8 8 8 8 8 9 9 8 8 8 9 9 9 9 9 9 9 10 10 10 11 11 11 11 12 12 12 12 12 12 12
10 10 9 10 9 9 8 8 8 8 8 8 8 8 8 8 8 8 8 8 8 8 9 9 9 9 9 9 9 10 10 10 10 11 11 12 12 12 12 12 12 12
10 10 9 9 9 9 8 8 8 8 8 8 8 8 8 8 8 8 8 8 8 8 8 9 9 9 9 9 9 9 10 10 10 10 11 11 11 11 12 12 12 12
10 9 9 9 9 9 8 8 8 8 8 8 8 8 8 8 8 8 8 8 8 8 8 8 8 8 9 8 8 9 9 9 10 10 10 11 11 11 11 11 12 12
9 9 9 9 9 9 8 8 8 8 8 8 8 8 8 8 8 8 8 8 8 8 8 8 8 8 8 8 8 9 9 9 9 10 10 10 11 11 11 11 11 12
9 9 9 9 9 9 8 8 8 8 8 8 8 8 8 8 8 8 7 7 7 7 7 7 7 8 8 8 8 8 8 8 9 9 10 10 10 11 11 11 11 11
9 9 9 9 9 9 8 8 8 8 8 8 8 8 8 8 7 7 7 7 7 7 7 7 7 7 7 7 8 7 8 8 8 9 9 9 10 10 11 11 11 11
10 10 9 9 9 9 8 8 8 8 7 7 7 7 7 7 7 7 7 7 7 7 7 7 7 7 7 7 7 7 7 8 8 9 9 9 10 10 10 11 11 11
10 10 9 9 9 8 8 8 7 7 7 7 7 7 7 7 7 7 7 7 7 6 6 6 6 6 6 6 7 7 7 8 8 8 8 9 9 10 10 10 11 11
10 10 9 9 9 8 8 8 7 7 7 7 7 7 7 7 7 7 7 7 7 6 6 6 6 6 6 6 6 7 7 7 7 8 8 9 9 9 10 10 11 11
10 10 10 9 9 8 8 7 7 7 7 7 7 7 7 7 7 7 7 7 7 6 6 6 6 6 6 6 6 6 6 7 7 7 8 8 9 9 9 10 10 11
10 10 10 9 9 8 8 8 8 7 7 7 7 7 7 7 7 7 7 6 6 6 6 6 6 6 6 6 6 6 6 7 7 7 8 8 9 9 9 9 10 10
10 10 10 9 9 8 8 8 8 8 7 7 7 7 7 7 7 6 7 7 6 6 6 6 6 6 6 6 6 6 7 7 7 7 8 8 9 9 9 9 10 10
11 11 10 10 9 9 8 8 8 7 7 7 7 7 7 7 6 6 6 6 6 6 6 6 6 6 6 6 6 6 7 7 7 7 8 8 9 9 9 9 10 10
11 10 10 9 9 9 9 8 8 7 7 7 7 7 6 6 6 7 6 6 6 6 6 6 6 6 6 6 6 6 6 7 7 8 8 8 9 9 9 9 10 10
10 10 10 9 9 9 9 8 8 7 7 7 7 6 6 6 6 6 6 6 6 6 6 6 6 6 6 6 6 6 6 7 7 8 8 8 8 9 9 9 9 9
10 10 9 9 9 9 9 8 8 7 7 7 7 6 6 6 6 6 6 6 6 6 6 6 6 6 6 6 6 6 6 7 8 8 8 8 9 9 8 9 9 9
10 10 9 9 9 9 8 8 7 7 7 7 6 6 6 6 6 6 6 6 6 6 6 6 6 6 6 6 6 6 6 6 7 8 8 8 9 8 8 8 9 9
10 9 9 9 9 8 8 7 7 7 7 6 6 6 6 6 6 6 6 6 6 6 6 6 6 6 6 6 6 6 6 7 7 8 8 8 8 8 8 8 9 9
10 9 9 9 9 8 8 7 7 7 6 6 6 6 6 6 6 6 6 6 6 6 6 6 6 6 6 6 6 7 7 7 7 7 8 8 8 8 8 8 9 9
9 9 9 9 8 8 8 8 7 7 7 6 6 6 6 6 6 6 6 6 6 6 6 6 6 6 6 6 6 6 7 7 7 7 8 8 8 8 8 8 8 9
9 9 9 8 8 8 8 8 7 7 7 7 7 7 6 6 6 6 6 6 6 6 6 6 6 6 6 6 6 6 7 7 7 7 7 7 8 8 8 8 8 8
9 9 9 8 8 8 8 7 7 7 7 7 7 7 7 6 6 6 6 6 6 6 6 6 6 6 6 6 6 6 7 7 7 7 7 7 7 7 8 8 8 8
9 9 9 8 8 8 8 7 7 7 7 7 7 7 7 7 7 7 7 7 6 6 6 6 6 6 6 6 6 6 6 7 7 7 7 7 7 7 7 7 7 8
Height
1534 1534 1533 1532 1531 1530 1529 1528 1527 1527 1526 1525 1525 1525 1524 1524 1523 1523 1523 1522 1522 1521 1521 1520 1519 1518 1518 1518 1517 1517 1517 1517 1517 1517 1517 1517 1517 1516 1516 1516 1517 1517
1534 1534 1533 1533 1531 1530 1529 1528 1527 1526 1526 1525 1524 1524 1523 1523 1523 1522 1522 1522 1521 1521 1520 1519 1519 1518 1517 1516 1516 1516 1516 1516 1516 1516 1515 1515 1515 1515 1515 1515 1515 1515
1534 1533 1533 1533 1531 1530 1529 1528 1527 1526 1525 1524 1524 1523 1522 1522 1522 1522 1522 1521 1521 1520 1519 1519 1518 1518 1517 1516 1515 1515 1515 1515 1515 1515 1514 1514 1513 1513 1513 1513 1513 1514
1533 1533 1533 1532 1531 1529 1528 1528 1527 1526 1525 1524 1523 1522 1522 1522 1521 1521 1521 1521 1520 1519 1518 1518 1518 1517 1516 1515 1514 1514 1514 1514 1514 1513 1513 1513 1512 1511 1511 1511 1511 1512
1532 1532 1532 1531 1530 1529 1528 1527 1526 1526 1524 1523 1522 1522 1521 1521 1521 1521 1520 1520 1519 1518 1518 1517 1517 1516 1516 1514 1513 1513 1512 1512 1512 1512 1511 1511 1511 1510 1510 1509 1509 1510
1531 1531 1531 1531 1530 1529 1528 1527 1526 1525 1524 1523 1522 1522 1521 1521 1521 1520 1519 1518 1517 1517 1516 1516 1515 1515 1515 1513 1512 1512 1511 1511 1510 1510 1510 1510 1509 1508 1508 1508 1508 1508
1531 1531 1531 1530 1529 1528 1527 1527 1526 1525 1523 1522 1522 1521 1521 1521 1520 1519 1518 1517 1516 1515 1515 1514 1514 1514 1513 1512 1511 1511 1510 1509 1509 1509 1509 1508 1508 1507 1507 1506 1506 1506
1531 1531 1530 1529 1528 1527 1526 1526 1525 1524 1523 1522 1521 1521 1521 1520 1519 1518 1517 1516 1515 1514 1514 1513 1513 1512 1512 1511 1510 1509 1509 1508 1508 1507 1507 1507 1507 1506 1506 1505 1504 1504
1530 1530 1529 1528 1527 1527 1526 1525 1525 1524 1522 1521 1521 1520 1520 1519 1518 1517 1516 1514 1514 1513 1512 1512 1511 1511 1511 1510 1509 1508 1507 1507 1506 1506 1506 1506 1506 1505 1504 1504 1503 1503
1529 1528 1528 1527 1526 1526 1525 1524 1524 1523 1521 1521 1520 1520 1519 1519 1517 1516 1515 1514 1513 1512 1512 1511 1510 1510 1510 1509 1508 1507 1506 1505 1505 1504 1504 1504 1504 1504 1504 1503 1502 1502
1528 1528 1527 1526 1525 1524 1523 1523 1523 1522 1521 1520 1520 1519 1519 1518 1517 1515 1514 1513 1512 1512 1511 1511 1510 1509 1508 1507 1506 1505 1505 1504 1504 1503 1503 1503 1503 1503 1502 1502 1501 1501
1527 1526 1526 1525 1524 1523 1522 1522 1522 1521 1520 1519 1519 1519 1518 1517 1516 1515 1514 1513 1512 1512 1511 1510 1509 1509 1508 1506 1505 1505 1504 1504 1503 1502 1502 1501 1501 1501 1501 1501 1500 1500
1525 1525 1524 1523 1522 1522 1522 1521 1520 1520 1519 1518 1518 1518 1517 1517 1515 1514 1513 1513 1512 1511 1510 1510 1509 1508 1507 1506 1505 1504 1503 1502 1502 1501 1501 1500 1500 1500 1500 1499 1499 1499
1524 1524 1523 1521 1521 1521 1521 1520 1519 1519 1518 1518 1517 1517 1516 1516 1515 1514 1513 1512 1512 1511 1510 1509 1508 1507 1506 1505 1504 1503 1502 1501 1500 1499 1499 1499 1499 1499 1498 1498 1498 1498
1522 1523 1522 1520 1519 1520 1520 1519 1518 1518 1517 1517 1517 1516 1516 1515 1514 1513 1512 1511 1511 1510 1509 1508 1507 1506 1505 1504 1503 1501 1500 1499 1498 1498 1498 1498 1498 1497 1498 1498 1497 1497
1522 1521 1521 1520 1519 1519 1519 1518 1517 1517 1516 1516 1515 1515 1514 1514 1513 1512 1512 1511 1510 1509 1509 1508 1506 1505 1504 1503 1501 1500 1498 1497 1496 1496 1496 1496 1497 1496 1497 1497 1497 1496
1521 1520 1519 1519 1518 1518 1518 1517 1516 1516 1515 1515 1514 1514 1513 1513 1512 1511 1511 1510 1509 1508 1508 1507 1505 1504 1503 1502 1500 1498 1496 1495 1494 1494 1495 1495 1496 1495 1496 1496 1496 1495
1520 1519 1518 1518 1518 1517 1517 1516 1515 1514 1514 1514 1513 1512 1512 1511 1511 1510 1510 1509 1509 1507 1507 1506 1504 1503 1502 1501 1499 1497 1495 1494 1493 1493 1493 1494 1495 1495 1495 1496 1495 1495
1518 1517 1517 1517 1516 1516 1515 1514 1513 1512 1512 1512 1511 1511 1511 1510 1510 1509 1509 1508 1508 1506 1506 1505 1503 1502 1501 1500 1498 1497 1495 1493 1492 1492 1493 1494 1494 1494 1495 1494 1494 1493
1517 1516 1516 1516 1515 1515 1514 1512 1512 1511 1510 1510 1510 1510 1509 1509 1508 1508 1507 1507 1506 1505 1505 1504 1503 1501 1500 1499 1498 1496 1495 1493 1492 1492 1492 1494 1494 1494 1494 1493 1493 1492
1515 1515 1515 1514 1514 1513 1512 1511 1510 1510 1509 1509 1509 1508 1508 1507 1507 1506 1506 1506 1505 1504 1504 1503 1501 1500 1499 1498 1497 1495 1494 1493 1492 1492 1492 1493 1493 1493 1493 1492 1492 1492
1514 1514 1513 1513 1512 1512 1511 1510 1509 1509 1508 1508 1507 1507 1507 1506 1506 1505 1505 1504 1504 1503 1503 1502 1500 1499 1498 1497 1496 1494 1494 1493 1493 1492 1492 1492 1492 1492 1492 1491 1491 1491
1513 1513 1512 1512 1511 1511 1510 1509 1508 1508 1508 1507 1506 1506 1505 1505 1505 1504 1503 1503 1503 1502 1502 1500 1499 1498 1497 1496 1495 1494 1493 1492 1492 1492 1491 1491 1491 1491 1490 1490 1490 1490
1512 1512 1511 1510 1510 1510 1509 1508 1508 1507 1507 1506 1506 1505 1504 1504 1503 1503 1502 1502 1502 1501 1500 1499 1498 1497 1496 1495 1494 1493 1492 1492 1492 1491 1491 1491 1491 1490 1490 1489 1489 1488
1511 1511 1510 1509 1509 1508 1508 1507 1507 1506 1506 1505 1505 1504 1503 1503 1502 1502 1502 1501 1500 1500 1499 1498 1497 1496 1495 1494 1493 1492 1492 1491 1491 1491 1491 1490 1490 1490 1490 1489 1488 1488
1510 1509 1509 1508 1507 1507 1506 1506 1505 1505 1504 1504 1503 1503 1502 1502 1502 1501 1500 1500 1499 1499 1498 1497 1496 1495 1494 1493 1493 1492 1491 1491 1490 1490 1490 1490 1490 1490 1489 1488 1487 1488
Wind_Speed
14 13 13 16 18 17 17 16 11 8 10 11 11 11 10 10 9 8 8 9 9 11 12 14 16 17 16 15 15 14 12 11 12 13 15 15 16 15 16 17 17 16
13 12 12 14 17 18 16 15 13 10 10 11 11 11 11 10 10 8 9 10 11 12 12 13 15 16 17 17 17 16 15 13 12 13 15 16 17 17 17 17 17 17
12 11 11 13 16 18 15 14 13 11 12 13 12 12 11 10 9 8 10 11 13 13 12 13 14 15 16 18 19 18 16 14 13 13 15 15 17 17 17 17 17 17
11 10 10 13 15 15 14 14 14 12 14 15 12 11 10 9 9 10 11 13 14 14 13 13 14 14 16 18 19 18 16 14 13 13 14 14 15 15 16 17 16 15
11 9 9 13 15 15 13 14 14 13 15 16 12 9 8 9 10 11 13 14 15 15 14 13 14 14 15 17 18 18 16 15 13 13 13 13 13 13 13 14 14 13
11 9 9 11 13 15 14 14 14 14 16 17 12 8 8 8 10 13 14 14 14 14 13 13 13 13 14 16 17 17 16 15 14 13 12 12 13 13 11 10 11 12
8 8 10 11 13 16 16 13 13 14 17 16 10 8 9 9 11 14 15 14 13 13 13 12 11 12 14 16 16 16 15 14 15 13 12 12 14 15 12 9 9 10
7 8 11 12 13 16 16 13 11 14 17 15 9 8 9 10 12 14 15 15 13 13 13 12 11 11 13 14 15 15 14 13 14 13 12 12 13 14 13 11 10 10
7 9 12 13 13 15 16 14 11 14 17 13 8 8 9 10 11 12 15 16 14 13 13 12 12 11 11 13 15 15 14 13 12 12 12 12 11 12 12 12 11 9
7 9 12 12 13 14 15 14 12 13 15 11 8 8 9 11 12 12 14 16 15 14 12 12 12 11 11 12 14 15 14 13 12 12 12 11 11 11 11 11 9 7
7 9 11 12 13 14 16 14 11 12 13 10 8 8 9 12 13 12 12 15 15 13 11 11 11 11 11 12 14 15 15 13 11 11 12 12 11 10 11 12 9 7
9 10 11 13 13 15 15 13 10 11 11 9 7 7 8 11 13 12 11 13 14 12 10 10 11 12 12 13 14 15 15 14 12 12 11 10 11 9 9 11 10 7
10 12 13 14 14 14 13 11 11 12 10 8 7 7 8 9 12 12 12 12 12 12 11 10 11 12 12 14 15 15 16 16 15 15 13 10 10 9 9 10 10 8
11 12 12 10 11 12 11 10 13 14 11 8 7 7 8 9 11 12 12 10 9 11 12 12 11 11 12 14 17 16 17 17 16 16 14 12 10 9 9 10 9 8
11 10 9 8 10 11 10 11 14 15 13 9 7 8 9 9 10 12 13 11 9 9 11 12 12 12 13 16 18 19 18 17 16 15 14 13 10 8 9 9 8 8
10 9 10 12 11 10 10 10 11 13 14 12 9 9 9 9 10 12 14 13 11 9 9 11 12 13 15 18 21 23 22 16 14 14 13 12 9 6 9 9 8 8
10 10 10 10 10 9 9 10 10 10 12 12 11 10 9 10 11 12 13 13 13 12 10 10 13 14 16 19 22 25 23 17 12 12 10 9 6 5 9 10 8 9
10 9 8 9 9 9 9 10 12 13 12 12 12 12 12 12 11 11 12 13 15 15 11 10 13 15 15 19 22 23 20 16 11 10 10 9 6 4 10 10 8 8
10 9 9 8 8 9 10 10 11 13 13 13 13 12 12 12 11 12 12 12 14 15 11 10 13 15 15 19 22 20 17 15 11 7 9 8 4 3 9 11 8 7
9 9 8 8 8 9 11 11 10 11 12 13 12 12 12 12 12 13 12 11 13 13 11 11 14 14 15 19 20 16 13 12 9 3 7 7 4 5 11 12 8 7
9 9 9 9 9 9 11 12 11 11 12 12 12 13 13 13 13 12 11 12 13 11 9 11 14 15 16 20 19 12 8 8 7 1 5 7 6 7 11 12 10 8
8 8 9 8 8 9 11 11 10 10 11 11 11 12 12 12 12 11 11 12 12 10 10 12 15 16 17 20 17 10 6 5 5 3 2 5 6 6 8 11 11 9
8 9 9 9 9 9 9 10 10 10 11 12 12 11 11 11 11 10 10 10 11 11 11 12 14 16 17 19 17 11 5 3 4 4 4 4 5 5 6 9 11 10
8 9 9 9 8 9 10 10 10 11 11 11 11 11 12 12 12 10 9 10 12 13 11 11 13 15 17 18 16 9 4 3 3 4 4 5 5 5 5 7 8 9
8 8 9 9 9 9 10 10 11 11 11 10 11 12 11 11 11 11 10 11 13 13 11 11 13 16 18 19 15 8 4 2 3 3 3 5 6 5 6 6 6 7
9 10 11 11 10 10 10 10 10 10 9 10 11 11 10 11 11 11 12 13 14 12 10 11 14 16 19 21 16 9 4 2 3 3 2 2 3 5 7 8 6 6
Wind_Direction
344 354 348 343 339 335 333 330 321 311 311 314 313 313 315 312 314 326 328 323 323 326 325 322 316 312 310 307 304 303 304 304 303 302 299 296 296 296 293 289 284 278
336 348 350 346 336 327 327 325 317 313 310 309 307 304 305 309 317 327 331 336 337 334 331 328 326 323 317 311 306 304 303 301 301 304 302 298 295 293 290 286 282 277
329 347 350 341 330 323 323 317 312 316 312 306 303 300 302 309 321 330 332 336 333 328 325 325 327 326 320 313 308 303 299 300 303 306 304 299 294 287 283 281 277 275
317 344 340 324 322 320 320 316 312 314 310 305 305 311 321 326 330 336 333 330 326 322 321 325 327 325 319 313 310 305 298 296 304 309 307 303 299 292 282 276 272 270
307 333 328 321 326 323 319 317 313 308 303 305 312 325 335 336 331 330 326 322 321 318 318 321 322 321 317 313 312 310 302 297 302 309 310 308 309 307 292 279 275 272
303 328 324 322 327 319 314 315 313 307 301 304 317 329 327 327 326 324 320 317 317 317 317 316 313 314 315 313 311 309 306 304 304 307 311 310 310 313 310 299 289 281
298 328 323 318 318 312 308 309 312 307 301 303 314 322 321 320 320 320 317 313 312 313 312 311 313 315 314 311 309 307 306 307 307 305 308 312 311 311 312 307 294 286
300 326 313 307 314 315 312 310 311 304 298 300 307 313 316 314 315 319 316 309 310 315 315 314 315 317 314 311 309 308 305 306 308 306 307 313 314 316 318 312 300 291
297 310 300 302 313 317 313 308 306 301 297 295 297 303 307 307 310 316 313 308 309 312 313 312 310 310 315 314 312 311 307 302 303 302 303 310 313 317 320 317 311 302
297 299 298 308 314 313 310 306 302 298 293 289 288 296 305 307 306 307 310 312 312 306 304 308 309 309 314 313 306 302 300 294 294 294 296 302 307 311 315 315 318 316
299 299 304 310 309 305 303 302 302 296 290 287 286 293 306 310 308 306 312 321 320 311 309 315 316 315 315 307 295 289 286 280 283 294 295 294 297 306 317 317 314 314
287 294 305 309 306 305 303 300 298 291 287 286 286 294 307 310 307 306 313 323 323 317 313 314 316 316 310 303 297 293 290 283 281 288 288 286 291 300 315 316 308 306
285 294 297 297 301 308 313 308 296 288 284 285 288 297 304 304 305 308 313 320 321 319 316 313 315 316 312 312 311 304 297 293 290 290 286 282 288 295 306 315 316 312
290 299 291 289 301 311 312 303 298 297 289 280 287 297 296 297 303 308 309 309 312 318 318 315 315 315 315 320 321 312 301 292 286 288 288 284 285 292 303 313 318 313
293 298 280 284 306 309 299 294 302 306 297 282 284 291 292 296 303 306 306 304 306 313 314 313 312 311 315 322 324 320 312 294 276 275 281 281 282 296 310 312 313 311
287 286 276 285 298 299 293 295 301 303 302 295 285 284 291 297 297 301 305 307 307 306 309 312 309 308 316 323 324 323 322 309 278 264 269 275 277 304 321 315 315 312
276 283 283 286 291 291 292 295 291 289 298 302 295 290 292 292 290 292 300 306 306 303 305 310 308 308 316 323 324 324 325 321 289 257 251 258 262 317 325 311 310 307
273 279 281 279 284 288 289 290 288 285 286 288 288 288 287 288 289 291 295 302 305 305 306 306 305 308 316 321 324 325 326 327 306 255 231 235 242 321 323 303 299 303
277 275 277 276 280 287 286 283 288 291 287 279 279 283 284 284 287 290 293 297 300 301 304 306 303 308 317 320 320 324 331 337 323 258 224 230 238 322 315 299 294 297
276 272 274 274 276 284 285 281 282 285 285 283 284 286 285 283 285 289 292 293 293 295 302 308 304 305 313 316 316 322 336 345 342 266 216 225 244 297 296 287 281 282
271 267 266 271 277 281 283 285 285 283 284 289 291 290 289 289 289 286 286 289 292 295 302 303 300 302 308 311 313 319 332 348 359 342 216 229 256 283 283 277 274 277
270 264 261 268 276 278 283 289 291 289 293 298 298 294 291 293 293 287 286 293 297 298 297 294 300 307 310 311 312 311 311 333 347 339 280 261 273 279 275 275 277 277
262 257 261 267 268 273 281 286 287 292 297 300 301 299 296 297 297 291 292 300 300 298 294 294 304 312 312 312 311 302 292 304 310 317 328 314 297 284 274 281 288 284
261 260 261 262 265 271 273 274 280 287 291 294 295 295 298 302 303 299 299 302 297 294 293 295 305 309 309 312 312 299 282 295 301 313 330 326 317 301 282 291 300 289
260 257 255 256 261 269 270 271 277 279 281 286 285 283 288 298 302 300 299 295 291 292 294 297 303 303 303 309 308 288 263 281 292 312 342 340 337 327 309 308 303 283
256 254 257 261 262 261 263 270 275 278 283 287 286 283 283 290 295 294 292 291 292 295 291 289 295 297 301 308 304 276 241 243 257 269 324 2 359 335 312 305 305 296